Regional Weather Roundup
Issued by NWS

Home | Current Version | Previous Version | Text Only | Print | Product List | Glossary On
Versions: 1 2 3 4 5 6 7 8 9 10 11 12 13 14 15 16 17 18 19 20 21 22 23 24 25 26 27 28 29 30 31 32 33 34 35 36 37 38 39 40 41 42 43 44 45 46 47 48 49 50
000
ASUS44 KLIX 030812
RWRLA
LOUISIANA WEATHER ROUNDUP
NATIONAL WEATHER SERVICE NEW ORLEANS LA
300 AM CDT MON AUG 03 2015

NOTE: "FAIR" INDICATES FEW OR NO CLOUDS BELOW 12,000 FEET WITH NO
      SIGNIFICANT WEATHER AND/OR OBSTRUCTIONS TO VISIBILITY.
      SKY/WX - SKY CONDITION AND SIGNIFICANT WEATHER.
      TMP - AIR TEMPERATURE.    DP   - DEWPOINT TEMPERATURE.
      RH  - RELATIVE HUMIDITY.  PRES - PRESSURE.
      HX  - HEAT INDEX.         WCI  - WIND CHILL INDEX.

*  THESE STATIONS ARE NOT NWS OR FAA STATIONS AND ARE NOT UNDER
   NWS QUALITY CONTROL.

LAZ040-048-061>063-065-066-069-030900-
SOUTHEAST LOUISIANA

CITY           SKY/WX    TMP DP  RH WIND       PRES   REMARKS
N.O. AUDUBON   NOT AVBL
N.O. INTL ARPT CLEAR     80  75  84 SW7       29.86F
N.O. LAKEFRONT CLEAR     83  76  79 W8        29.87F
N.O. DOWNTOWN* FAIR      82  75  78 CALM      29.88F
RESERVE*         N/A     76  74  92 CALM      29.87F
SLIDELL        CLEAR     76  73  91 CALM      29.86F
BATON ROUGE    CLEAR     78  71  79 W3        29.88S
BOOTHVILLE     CLEAR     83  77  82 NW3       29.86F
BELLE CHASSE   CLEAR     79  77  94 W3        29.86F
BOGALUSA*        N/A     74  70  87 CALM      29.89F
GALLIANO*      NOT AVBL
NEW ROADS*     FAIR     N/A N/A N/A CALM      29.88F
GONZALES*      FAIR      74  74 100 CALM      29.87S
HAMMOND*       CLEAR     75  68  78 CALM      29.89S
HOUMA*         CLEAR     78  76  94 CALM      29.87F
PORT FOURCHON* SUNNY     86  75  70 W8        29.87F HX  95

$$

LAZ041-044-053-054-030900-
SOUTHWEST LOUISIANA

CITY           SKY/WX    TMP DP  RH WIND       PRES   REMARKS
LAKE CHARLES   CLEAR     75  72  90 CALM      29.87S
LAFAYETTE      CLEAR     77  73  87 CALM      29.88F
PATTERSON      CLEAR     75  73  94 CALM      29.88F
SALT POINT       N/A     84  76  76 MISG      29.85F
NEW IBERIA     CLEAR     75  73  93 CALM      29.88F
CHENAULT AIRPK CLEAR     74  73  93 CALM      29.88S

$$

LAZ027-028-030900-
CENTRAL LOUISIANA

CITY           SKY/WX    TMP DP  RH WIND       PRES   REMARKS
FORT POLK      CLEAR     73  65  78 SE3       29.88S
ALEXANDRIA INT CLEAR     73  70  90 CALM      29.86F
ALEXANDRIA     MOCLDY    72  68  87 CALM      29.89R

$$

LAZ001-002-030900-
NORTHWEST LOUISIANA

CITY           SKY/WX    TMP DP  RH WIND       PRES   REMARKS
SHREVEPORT     PTCLDY    75  66  73 CALM      29.88S
BARKSDALE AFB  CLEAR     74  67  80 CALM      29.88S
DTN SHREVEPORT CLEAR     74  69  85 CALM      29.89S

$$

LAZ014-016-030900-
NORTHEAST LOUISIANA

CITY           SKY/WX    TMP DP  RH WIND       PRES   REMARKS
MONROE         CLEAR     72  68  87 CALM      29.89S
TALLULAH       CLEAR     73  70  90 CALM      29.87F

$$



USA.gov is the U.S. government's official web portal to all federal, state and local government web resources and services.